Weather in Aarau

Switzerland     47°23′30″N   8°02′59″E
temp.,
°C
wind,
m/s
gust,
m/s
humid.,
%
clouds,
%
prec.,
mm/h
press.,
hPa
HPBL,
m
18 may, tue
tue1823:00+6ssw239773 0.9 101775
02:00+7sw3897100 1.1 1017341
05:00+7sw2498100 0.6 1017180
08:00+7w149727 3.4 1018169
11:00+10wnw468497 0.9 1017960
14:00+13wnw4667100 2.3 10161243
17:00+13wnw5656100 0.4 10141270
20:00+10w3776100 0.4 1016494
19 may, wed
wed1923:00+7w2694100 0.3 1019188
02:00+5ssw119784 0.9 102024
05:00+3sw11986 0.1 102013
08:00+6sw1195100 0.2 1021157
11:00+10w248794 0.8 1020873
14:00+11wnw469093 3.8 10191019
17:00+10wnw579199 2.3 10191130
20:00+7w3992100 3.9 1021540
20 may, thu
thu2023:00+4sw229799 0.2 102325
02:00+4ssw2298100 0.3 102340
05:00+5wsw1398100 0.1 1024109
08:00+6sw279799 0.6 1025368
11:00+8w369372 0.8 1026673
14:00+11wnw237088 1.6 10241086
17:00+15wnw335150 0.1 10231723
20:00+11nw1174100 0.1 102210
21 may, fri
fri2123:00+7ese0085100 0.0 102310
02:00+7ese1186100 0.0 102115
05:00+6se1189100 0.0 101922
08:00+9se1275100 0.0 1017170
11:00+15ssw2652100 0.0 1015692
14:00+20wsw5114098 0.0 10122185
17:00+12wnw4892100 0.7 1013517
20:00+10se22100100 5.1 101197
22 may, sat
sat2223:00+10n22100100 3.4 100979
02:00+10w37100100 17.4 1009506
05:00+7wnw41097100 10.6 1012652
08:00+7w2498100 13.9 1013216
11:00+10wsw4884100 0.7 10121315
14:00+15wnw6103674 1.1 10102665
17:00+14wnw6105198 0.1 10112098
20:00+9wnw410889 0.9 1013755